[[{"header":{"parameterUnit":"m.s-1","parameterCategory":1,"la1":30.2991,"la2":30.254,"lo1":-89.0895,"lo2":-89.0444,"dy":0.0017,"dx":0.0017,"nx":28,"ny":28,"refTime":"2023-09-16T21:00:00:Z","depth":0,"parameterNumber":2,"parameterNumberName":"U-component_of_WINDS"},"data":[0,0,0,0,0,0,0,0,0,0,0,0,0,0,0,0,0,0,0,0,0,0,0,0,0,0,0,0,0,0,0,0,0,0,0,0,0,0,0,0,0,0,0,0,0,0,0,0,0,0,0,0,0,0,0,0,0,0,1.6647,1.6648,0,1.6692,1.6693,1.6693,1.6662,1.6661,1.666,1.6658,1.6706,1.6708,1.6711,0,0,0,0,0,0,0,0,0,0,0,0,0,1.6537,1.6539,1.6647,1.6648,1.6648,1.6692,1.6693,1.6693,1.6663,1.6661,1.6659,1.6658,1.6705,1.6708,1.6711,0,0,0,0,0,0,0,0,0,0,0,0,0,1.6584,1.654,1.6647,1.6638,1.6638,1.6692,1.6693,1.6693,1.6663,1.6661,1.6659,1.6657,1.6704,1.6708,1.6711,1.6777,0,0,1.6723,1.6725,0,0,0,0,0,0,0,0,1.6581,1.6588,1.6639,1.6639,1.6639,1.6669,1.6671,1.6721,1.6663,1.6653,1.6658,1.6656,1.6695,1.67,1.6713,1.6779,1.6781,1.6724,1.6726,1.6728,1.6729,0,0,0,0,0,0,0,1.6578,1.6586,1.6665,1.664,1.664,1.6633,1.6637,1.6681,1.6686,1.6654,1.6652,1.6658,1.6695,1.6709,1.6714,1.6782,1.6723,1.6727,1.6729,1.6731,1.6907,1.6909,0,0,0,0,0,0,1.6575,1.6583,1.6663,1.6666,1.6604,1.6636,1.6641,1.6662,1.6685,1.6687,1.6659,1.6656,1.6704,1.6709,1.6715,1.6795,1.6727,1.6731,1.6733,1.6904,1.6907,1.691,0,0,0,0,0,0,1.6573,1.6583,1.6662,1.6624,1.6634,1.6641,1.6664,1.6664,1.6678,1.6689,1.669,1.6673,1.6702,1.671,1.6762,1.6796,1.6733,1.6736,1.6902,1.6905,1.6909,1.6954,0,0,0,0,0,0,1.657,1.6582,1.6606,1.6625,1.6636,1.6707,1.6666,1.6666,1.6684,1.6681,1.6702,1.6704,1.6701,1.6757,1.6766,1.68,1.6739,1.6899,1.6903,1.6907,1.695,1.6959,1.6967,0,0,0,0,0,1.6566,1.6617,1.6608,1.6618,1.6666,1.6709,1.6715,1.6711,1.6687,1.6712,1.672,1.6703,1.6791,1.6762,1.6773,1.6809,1.6896,1.6902,1.6907,1.6946,1.6957,1.6967,0,0,0,0,0,0,1.6603,1.662,1.6609,1.6668,1.6687,1.6704,1.6735,1.6723,1.675,1.6745,1.6739,1.6745,1.68,1.6809,1.6777,1.6875,1.684,1.6848,1.6866,1.6877,1.6885,1.6882,1.6743,0,0,0,0,0,1.6617,1.665,1.6663,1.6714,1.6724,1.6728,1.6747,1.6742,1.6762,1.677,1.6781,1.6802,1.6835,1.6856,1.6887,1.6951,1.6956,1.6981,1.699,1.6997,1.7004,1.704,1.7052,1.6927,1.6927,1.6927,0,0,1.6648,1.6662,1.6683,1.6722,1.6736,1.6771,1.6735,1.6773,1.68,1.6776,1.6827,1.6836,1.6859,1.6918,1.6945,1.6928,1.7039,1.7003,1.7009,1.7012,1.7047,1.7059,1.7069,1.6931,1.693,1.693,0,0,1.6723,1.6736,1.678,1.6796,1.6818,1.6821,1.6832,1.6851,1.6856,1.6906,1.689,1.6921,1.6977,1.6995,1.7011,1.7094,1.708,1.7104,1.7149,1.7185,1.7195,1.7203,1.7234,1.7246,1.7111,1.7111,1.7111,0,1.6759,1.681,1.6804,1.6845,1.6863,1.6843,1.6889,1.6904,1.6936,1.695,1.693,1.7001,1.7014,1.7078,1.7099,1.7112,1.7126,1.7102,1.7194,1.7202,1.721,1.724,1.7252,1.7114,1.7114,1.7113,1.7113,0,1.6854,1.689,1.6923,1.6955,1.6977,1.7019,1.7021,1.7044,1.7038,1.7043,1.7096,1.7112,1.7146,1.7161,1.7155,1.7225,1.7214,1.7194,1.7159,1.7225,1.7253,1.7264,1.7118,1.7117,1.7116,1.7115,0,0,1.6952,1.6981,1.6993,1.7008,1.7032,1.7061,1.7103,1.7136,1.7157,1.718,1.7216,1.7265,1.7247,1.7266,1.7262,1.7293,1.736,1.727,1.727,1.7287,1.744,1.7455,1.7468,1.7351,1.7353,1.7355,1.7438,0,1.7029,1.7103,1.7099,1.7169,1.7203,1.7186,1.7223,1.7243,1.7249,1.728,1.7287,1.7322,1.7295,1.7306,1.7337,1.7345,1.7391,1.7339,1.7386,1.7388,1.7382,1.7483,1.7499,1.7577,1.7449,1.7451,1.7452,0,1.7128,1.7155,1.7228,1.7249,1.7263,1.7297,1.7328,1.7357,1.738,1.7382,1.7404,1.7395,1.744,1.7404,1.7466,1.7431,1.745,1.7457,1.746,1.7465,1.7424,1.7491,1.7601,1.7614,1.7469,1.7468,1.7467,0,1.7194,1.7248,1.7299,1.7313,1.7338,1.7362,1.7374,1.7394,1.7415,1.7443,1.7456,1.7489,1.7507,1.7533,1.7534,1.7507,1.7597,1.7561,1.7602,1.7602,1.7622,1.7621,1.7737,1.7632,1.7632,1.7632,1.7632,0,1.7281,1.7327,1.733,1.7361,1.7412,1.7409,1.746,1.7469,1.7488,1.7522,1.7509,1.7541,1.754,1.7573,1.7574,1.7626,1.7634,1.7639,1.7638,1.764,1.764,1.7653,1.7648,1.7635,1.7634,1.7634,1.7633,0,1.7363,1.7367,1.7422,1.7442,1.7448,1.7485,1.7502,1.7533,1.7538,1.7582,1.7592,1.7601,1.7639,1.7643,1.7687,1.7688,1.7752,1.7745,1.7744,1.7743,1.7784,1.7781,1.7915,1.7933,1.7815,1.7816,1.7817,0,1.7419,1.7454,1.7478,1.75,1.7513,1.7548,1.7569,1.7568,1.7591,1.762,1.7648,1.7685,1.7715,1.7777,1.7788,1.7823,1.7818,1.7862,1.7823,1.7824,1.782,1.7818,1.7823,1.787,1.7871,1.7872,1.7873,0,1.7518,1.7518,1.7549,1.7582,1.7608,1.7634,1.7658,1.7676,1.7678,1.7705,1.7744,1.7767,1.7813,1.7851,1.7885,1.7898,1.7887,1.7886,1.7897,1.79,1.7898,1.7901,1.7766,1.7883,1.7882,1.7881,1.7881,1.788,1.7589,1.762,1.7642,1.7678,1.7696,1.7719,1.7749,1.7759,1.7792,1.7829,1.7826,1.787,1.7893,1.7938,1.7954,1.7989,1.7974,1.799,1.7995,1.7999,1.8004,1.7892,1.7995,1.7995,1.7995,1.7994,1.7994,0,1.7688,1.7702,1.7735,1.7769,1.7798,1.7784,1.7811,1.7836,1.7875,1.7897,1.7927,1.7973,1.801,1.8024,1.8061,1.8086,1.8082,1.8096,1.8094,1.8098,1.8015,1.8002,1.8099,1.8099,1.8099,1.8099,1.8099,1.8099,1.7743,1.7795,1.7799,1.786,1.7874,1.7917,1.7933,1.7955,1.7973,1.8025,1.8056,1.8065,1.8085,1.8123,1.8157,1.816,1.8174,1.8191,1.8192,1.8114,1.8104,1.8094,1.8081,1.8194,1.8194,1.8273,1.8274,1.8274]},{"header":{"parameterUnit":"m.s-1","parameterCategory":1,"la1":30.2991,"la2":30.254,"lo1":-89.0895,"lo2":-89.0444,"dy":0.0017,"dx":0.0017,"nx":28,"ny":28,"refTime":"2023-09-16T21:00:00:Z","depth":0,"parameterNumber":3,"parameterNumberName":"V-component_of_WINDS"},"data":[0,0,0,0,0,0,0,0,0,0,0,0,0,0,0,0,0,0,0,0,0,0,0,0,0,0,0,0,0,0,0,0,0,0,0,0,0,0,0,0,0,0,0,0,0,0,0,0,0,0,0,0,0,0,0,0,0,0,-2.5701,-2.5701,0,-2.5737,-2.5737,-2.5738,-2.5757,-2.5757,-2.5757,-2.5757,-2.5791,-2.5792,-2.5793,0,0,0,0,0,0,0,0,0,0,0,0,0,-2.5646,-2.5647,-2.57,-2.5701,-2.5701,-2.5737,-2.5737,-2.5738,-2.5757,-2.5757,-2.5757,-2.5757,-2.5791,-2.5792,-2.5793,0,0,0,0,0,0,0,0,0,0,0,0,0,-2.5675,-2.5648,-2.57,-2.5715,-2.5717,-2.5737,-2.5737,-2.5738,-2.5757,-2.5757,-2.5757,-2.5757,-2.5791,-2.5792,-2.5793,-2.5799,0,0,-2.5797,-2.5797,0,0,0,0,0,0,0,0,-2.5673,-2.5677,-2.5713,-2.5714,-2.5716,-2.5743,-2.5731,-2.5758,-2.5757,-2.5742,-2.5757,-2.5758,-2.5775,-2.5777,-2.5784,-2.5801,-2.5802,-2.5797,-2.5798,-2.5798,-2.5799,0,0,0,0,0,0,0,-2.5671,-2.5675,-2.5715,-2.5713,-2.5716,-2.572,-2.5724,-2.5736,-2.5757,-2.5743,-2.5745,-2.5749,-2.5776,-2.5783,-2.5785,-2.5803,-2.5797,-2.5798,-2.5799,-2.5799,-2.583,-2.583,0,0,0,0,0,0,-2.5667,-2.5674,-2.5714,-2.5716,-2.5695,-2.5721,-2.5726,-2.5734,-2.5757,-2.5761,-2.5749,-2.575,-2.578,-2.5783,-2.5786,-2.5797,-2.5798,-2.58,-2.58,-2.583,-2.583,-2.583,0,0,0,0,0,0,-2.5666,-2.5671,-2.5712,-2.5695,-2.5701,-2.5722,-2.5731,-2.5735,-2.5742,-2.5762,-2.5765,-2.5752,-2.5781,-2.5784,-2.5797,-2.5799,-2.58,-2.5801,-2.583,-2.583,-2.583,-2.5818,0,0,0,0,0,0,-2.5664,-2.567,-2.5673,-2.5695,-2.5702,-2.5723,-2.5731,-2.5735,-2.5744,-2.5746,-2.5766,-2.5769,-2.5781,-2.5795,-2.5798,-2.58,-2.5802,-2.583,-2.583,-2.583,-2.5819,-2.5818,-2.5817,0,0,0,0,0,-2.5662,-2.5666,-2.5673,-2.5677,-2.5706,-2.5723,-2.5726,-2.5741,-2.5744,-2.5748,-2.5761,-2.5768,-2.5798,-2.5796,-2.58,-2.5802,-2.583,-2.583,-2.583,-2.5819,-2.5818,-2.5817,0,0,0,0,0,0,-2.5642,-2.567,-2.5677,-2.5689,-2.5704,-2.5726,-2.573,-2.5739,-2.5753,-2.5753,-2.577,-2.5774,-2.5786,-2.5795,-2.5793,-2.5811,-2.5815,-2.5816,-2.5805,-2.5804,-2.5804,-2.5801,-2.5803,0,0,0,0,0,-2.5639,-2.5651,-2.5674,-2.5682,-2.569,-2.5709,-2.5717,-2.5727,-2.5743,-2.5749,-2.5762,-2.5776,-2.5789,-2.5797,-2.581,-2.582,-2.5826,-2.5824,-2.5823,-2.5823,-2.5823,-2.5832,-2.5832,-2.5831,-2.5831,-2.5831,0,0,-2.5632,-2.5649,-2.5655,-2.5679,-2.5692,-2.5704,-2.5714,-2.5725,-2.5735,-2.575,-2.5764,-2.5775,-2.5791,-2.5804,-2.581,-2.5812,-2.5825,-2.5823,-2.5822,-2.5823,-2.5832,-2.5832,-2.5832,-2.5831,-2.5831,-2.5831,0,0,-2.5627,-2.564,-2.565,-2.5664,-2.5684,-2.5697,-2.5699,-2.5721,-2.573,-2.5744,-2.5756,-2.5767,-2.5788,-2.5801,-2.581,-2.5813,-2.5821,-2.5816,-2.5813,-2.5821,-2.5821,-2.5822,-2.5824,-2.5825,-2.5817,-2.5817,-2.5817,0,-2.5616,-2.5636,-2.5653,-2.5666,-2.5677,-2.5693,-2.5703,-2.5715,-2.5737,-2.5744,-2.5746,-2.5776,-2.5788,-2.5804,-2.5806,-2.5812,-2.5815,-2.5814,-2.582,-2.5821,-2.5821,-2.5824,-2.5825,-2.5816,-2.5816,-2.5816,-2.5816,0,-2.5623,-2.5637,-2.5642,-2.5666,-2.5677,-2.5688,-2.5707,-2.5716,-2.5726,-2.5739,-2.5755,-2.5771,-2.5788,-2.5792,-2.5801,-2.5811,-2.5812,-2.5817,-2.5821,-2.582,-2.5823,-2.5824,-2.5815,-2.5815,-2.5816,-2.5816,0,0,-2.5604,-2.564,-2.5642,-2.5654,-2.5679,-2.569,-2.5702,-2.5721,-2.5729,-2.5744,-2.5756,-2.5775,-2.5781,-2.5791,-2.5801,-2.5809,-2.5813,-2.5813,-2.5814,-2.5814,-2.5827,-2.5824,-2.5825,-2.5818,-2.5818,-2.5819,-2.5826,0,-2.5604,-2.5629,-2.5646,-2.5664,-2.5678,-2.5694,-2.5706,-2.5722,-2.5735,-2.5748,-2.5762,-2.5776,-2.5781,-2.5788,-2.5796,-2.581,-2.5816,-2.581,-2.5829,-2.583,-2.5826,-2.5826,-2.5822,-2.5829,-2.5827,-2.5827,-2.5827,0,-2.5606,-2.5624,-2.5644,-2.567,-2.5677,-2.5686,-2.5707,-2.5719,-2.5738,-2.5747,-2.576,-2.5772,-2.5786,-2.5789,-2.581,-2.5805,-2.5814,-2.5823,-2.5824,-2.5827,-2.5829,-2.583,-2.5831,-2.5832,-2.5829,-2.5829,-2.5829,0,-2.5593,-2.5622,-2.5638,-2.5648,-2.5678,-2.5685,-2.5698,-2.5717,-2.5728,-2.5746,-2.5753,-2.5771,-2.5781,-2.5795,-2.5811,-2.5811,-2.5831,-2.5834,-2.5839,-2.5839,-2.5843,-2.5842,-2.5846,-2.5846,-2.5846,-2.5846,-2.5846,0,-2.5592,-2.5604,-2.5633,-2.5643,-2.5658,-2.5678,-2.5691,-2.5705,-2.5723,-2.5736,-2.5751,-2.5763,-2.5783,-2.5798,-2.581,-2.5827,-2.583,-2.5838,-2.5842,-2.5838,-2.5837,-2.5844,-2.5845,-2.5847,-2.5847,-2.5847,-2.5847,0,-2.558,-2.56,-2.5619,-2.5647,-2.5655,-2.5664,-2.5688,-2.5699,-2.5713,-2.573,-2.5735,-2.5758,-2.5776,-2.5794,-2.5817,-2.5826,-2.5842,-2.5846,-2.5836,-2.5839,-2.5843,-2.5843,-2.5852,-2.5855,-2.5853,-2.5853,-2.5853,0,-2.5578,-2.5588,-2.5618,-2.5629,-2.5642,-2.5659,-2.5671,-2.5691,-2.5704,-2.5728,-2.5736,-2.5756,-2.5773,-2.5801,-2.5819,-2.5838,-2.5843,-2.5845,-2.5846,-2.5842,-2.5845,-2.5845,-2.5847,-2.5845,-2.5845,-2.5845,-2.5844,0,-2.5573,-2.5583,-2.5601,-2.5624,-2.5639,-2.5657,-2.5675,-2.5683,-2.5707,-2.572,-2.574,-2.5753,-2.5779,-2.5799,-2.582,-2.5833,-2.5843,-2.5844,-2.5847,-2.5843,-2.5838,-2.5843,-2.5837,-2.5844,-2.5844,-2.5844,-2.5844,-2.5844,-2.5567,-2.5578,-2.5602,-2.5622,-2.5639,-2.5656,-2.5669,-2.5686,-2.5703,-2.5727,-2.5738,-2.5759,-2.578,-2.581,-2.5823,-2.5839,-2.5841,-2.5844,-2.5845,-2.5846,-2.5846,-2.5835,-2.5843,-2.5843,-2.5843,-2.5843,-2.5843,0,-2.5565,-2.5582,-2.56,-2.5627,-2.5643,-2.5653,-2.5675,-2.5688,-2.5706,-2.5726,-2.5743,-2.5767,-2.5787,-2.5808,-2.5829,-2.5838,-2.5844,-2.5843,-2.5843,-2.5846,-2.5842,-2.5839,-2.5839,-2.5839,-2.5839,-2.5839,-2.5839,-2.5839,-2.5565,-2.5585,-2.5599,-2.5627,-2.5644,-2.5666,-2.5677,-2.5694,-2.571,-2.5737,-2.5755,-2.5769,-2.5789,-2.5812,-2.5831,-2.5837,-2.5845,-2.5843,-2.585,-2.5846,-2.5846,-2.5846,-2.5843,-2.5844,-2.5844,-2.5853,-2.5853,-2.5854]}]]